Location: Ellingshausen
(50.5460°N, 10.4723°E)
Time: 00:15:35
(UTC+00:00)

AQUARIUS - Pass Details

Date: 18 January 2026
Orbit: 633 x 636 km, 98.0° (Epoch: 17 February)

Event Time Altitude Azimuth Distance (km) Brightness Sun altitude
Rises 06:25:11 0° 12° (NNE) 2,947 7.4 -7.2°
Reaches altitude 10° 06:27:24 10° 10° (N) 2,033 6.6 -6.9°
Maximum altitude 06:31:48 71° 287° (WNW) 675 4.1 -6.2°
Drops below altitude 10° 06:36:10 10° 204° (SSW) 2,015 6.7 -5.6°
Sets 06:38:22 0° 202° (SSW) 2,919 7.6 -5.3°
